TimeEDT,TemperatureF,Dew PointF,Humidity,Sea Level PressureIn,VisibilityMPH,Wind Direction,Wind SpeedMPH,Gust SpeedMPH,PrecipitationIn,Events,Conditions,WindDirDegrees,DateUTC
12:54 AM,68.0,57.9,70,30.26,10.0,Calm,Calm,-,N/A,,Mostly Cloudy,0,2013-08-18 04:54:00
1:54 AM,70.0,57.9,65,30.25,10.0,Calm,Calm,-,N/A,,Overcast,0,2013-08-18 05:54:00
2:54 AM,68.0,60.1,76,30.24,10.0,Calm,Calm,-,N/A,,Overcast,0,2013-08-18 06:54:00
3:54 AM,69.1,60.1,73,30.24,10.0,Calm,Calm,-,N/A,,Overcast,0,2013-08-18 07:54:00
4:54 AM,68.0,62.1,81,30.23,10.0,Calm,Calm,-,0.00,Rain,Light Rain,0,2013-08-18 08:54:00
5:54 AM,66.9,62.1,84,30.24,10.0,ENE,5.8,-,0.02,Rain,Light Rain,60,2013-08-18 09:54:00
6:11 AM,66.2,62.6,88,30.24,8.0,NE,5.8,-,0.00,Rain,Light Rain,50,2013-08-18 10:11:00
6:54 AM,66.9,61.0,81,30.24,9.0,ENE,4.6,-,0.01,,Overcast,60,2013-08-18 10:54:00
7:54 AM,68.0,61.0,78,30.25,10.0,Variable,3.5,-,N/A,,Overcast,0,2013-08-18 11:54:00
8:54 AM,69.1,60.1,73,30.25,10.0,NE,5.8,-,N/A,,Overcast,40,2013-08-18 12:54:00
9:54 AM,71.1,57.9,63,30.26,10.0,NE,8.1,-,0.00,,Overcast,40,2013-08-18 13:54:00
10:54 AM,73.0,57.9,59,30.25,10.0,NE,8.1,-,N/A,,Overcast,40,2013-08-18 14:54:00
11:54 AM,75.0,57.0,53,30.24,10.0,NE,5.8,-,N/A,,Overcast,50,2013-08-18 15:54:00
12:54 PM,75.9,55.9,50,30.22,10.0,NE,9.2,-,N/A,,Overcast,50,2013-08-18 16:54:00
1:54 PM,73.9,57.0,55,30.19,10.0,North,11.5,21.9,N/A,,Overcast,360,2013-08-18 17:54:00
2:54 PM,73.0,57.0,57,30.18,10.0,North,13.8,-,0.00,Rain,Light Rain,360,2013-08-18 18:54:00
3:54 PM,75.9,59.0,56,30.16,10.0,NNE,8.1,-,0.00,,Overcast,20,2013-08-18 19:54:00
4:54 PM,75.0,59.0,57,30.16,10.0,ENE,6.9,-,N/A,,Overcast,60,2013-08-18 20:54:00
5:54 PM,75.0,57.9,55,30.16,10.0,NNE,5.8,-,N/A,,Overcast,30,2013-08-18 21:54:00
6:54 PM,73.9,54.0,50,30.15,10.0,Variable,5.8,-,N/A,,Mostly Cloudy,0,2013-08-18 22:54:00
7:54 PM,73.9,53.1,48,30.17,10.0,NNW,5.8,-,N/A,,Mostly Cloudy,340,2013-08-18 23:54:00
8:54 PM,72.0,61.0,68,30.16,10.0,NNW,8.1,-,N/A,,Mostly Cloudy,330,2013-08-19 00:54:00
9:54 PM,71.1,61.0,70,30.17,10.0,NNW,5.8,-,N/A,,Mostly Cloudy,330,2013-08-19 01:54:00
10:54 PM,70.0,61.0,73,30.17,10.0,NNW,5.8,-,N/A,,Mostly Cloudy,330,2013-08-19 02:54:00
11:54 PM,70.0,60.1,71,30.17,10.0,Calm,Calm,-,N/A,,Mostly Cloudy,0,2013-08-19 03:54:00